Location: Peebles
(55.6412°N, 3.1714°W)
Time: 23:02:20
(UTC+00:00)

Cosmos 1975 Rocket - Visible Passes

Search period start: 27 January 2022 00:00
Search period end: 06 February 2022 00:00
Orbit: 604 x 633 km, 82.5° (Epoch: 27 January)

Date Brightness Start Highest point End Pass type
(mag) Time Alt. Az. Time Alt. Az. Time Alt. Az.
27 Jan 3.4 17:11:44 10° SSW 17:16:07 73° WNW 17:20:35 10° N visible
27 Jan 5.9 18:52:32 10° W 18:54:52 14° NW 18:57:11 10° NNW visible
28 Jan 4.2 17:29:09 10° SW 17:33:23 45° WNW 17:37:41 10° N visible
29 Jan 5.0 17:46:52 10° SW 17:50:44 29° WNW 17:54:41 10° N visible
30 Jan 5.6 18:04:55 10° WSW 18:08:12 20° WNW 18:11:30 10° NNW visible
31 Jan 5.9 18:23:28 10° W 18:25:44 14° NW 18:28:02 10° NNW visible
03 Feb 5.6 17:35:49 10° WSW 17:39:04 20° WNW 17:42:21 10° NNW visible
04 Feb 5.8 17:54:24 10° W 17:56:37 13° NW 17:58:51 10° NNW visible
